Eveleth, MN

10:47 AM CDT on August 22, 2017 (GMT -0500)
Eveleth-Virginia Municipal

Weather History for KEVM - June, 2013

Change the Weather History Date:

Wednesday, June 26, 2013

  Actual Average Record
Temperature  
Mean Temperature 68 °F -  
Max Temperature 77 °F 73 °F 89 °F (2001)
Min Temperature 59 °F 51 °F 42 °F (2004)
Cooling Degree Days 3    
Growing Degree Days 18 (Base 50)    
Moisture  
Dew Point 63 °F    
Average Humidity 82    
Maximum Humidity 100    
Minimum Humidity 61    
Precipitation  
Precipitation 0.08 in - - ()
Sea Level Pressure  
Sea Level Pressure 29.74 in    
Wind  
Wind Speed 2 mph (NW)    
Max Wind Speed 12 mph    
Max Gust Speed 22 mph    
Visibility 10 miles    
Events Rain , Thunderstorm    
Averages and records for this station are not official NWS values.
T = Trace of Precipitation, MM = Missing Value Source: NWS Daily Summary

Daily Weather History Graph

Daily Weather History Graph

Search for Another Location

Airport or City:

Trip Planner

Search our weather history database for the weather conditions in past years. The results will help you decide how hot, cold, wet, or windy it might be!

Date:

Astronomy

Jun. 26, 2013 Rise Set
Actual Time 5:14 AM CDT 9:11 PM CDT
Civil Twilight 4:34 AM CDT 9:51 PM CDT
Nautical Twilight 3:38 AM CDT 10:46 PM CDT
Astronomical Twilight 2:11 AM CDT 12:13 AM CDT
Moon 11:14 PM CDT (6/26) 9:23 AM CDT (6/26)
Length of Visible Light 17h 17m
Length of Day
15h 56m
Waning Gibbous, 85% of the Moon is Illuminated
Jun 26
Waning Gibbous
Jun 29
Last Quarter
Jul 8
New
Jul 15
First Quarter
Jul 22
Full

Hourly Weather History & Observations

Time (CDT) Temp. Dew Point Humidity Pressure Visibility Wind Dir Wind Speed Gust Speed Precip Events Conditions
12:08 AM 68.0 °F 60.8 °F 78% 29.77 in 10.0 mi Calm Calm - N/A   Mostly Cloudy
12:29 AM 66.2 °F 59.0 °F 78% 29.76 in 10.0 mi Calm Calm - N/A   Scattered Clouds
12:49 AM 64.4 °F 59.0 °F 83% 29.75 in 10.0 mi Calm Calm - N/A   Clear
1:08 AM 64.4 °F 59.0 °F 83% 29.74 in 10.0 mi Calm Calm - N/A   Clear
1:29 AM 62.6 °F 59.0 °F 88% 29.74 in 10.0 mi Calm Calm - N/A   Clear
1:49 AM 62.6 °F 60.8 °F 94% 29.73 in 10.0 mi Calm Calm - N/A   Clear
2:08 AM 62.6 °F 60.8 °F 94% 29.73 in 10.0 mi Calm Calm - N/A   Clear
2:29 AM 62.6 °F 60.8 °F 94% 29.73 in 10.0 mi Calm Calm - N/A   Clear
2:49 AM 59.0 °F 59.0 °F 100% 29.73 in 10.0 mi Calm Calm - N/A   Clear
3:08 AM 59.0 °F 59.0 °F 100% 29.73 in 10.0 mi Calm Calm - N/A   Clear
3:29 AM 59.0 °F 59.0 °F 100% 29.75 in 7.0 mi Calm Calm - N/A   Scattered Clouds
3:49 AM 59.0 °F 59.0 °F 100% 29.75 in 10.0 mi Calm Calm - N/A   Mostly Cloudy
4:08 AM 59.0 °F 59.0 °F 100% 29.73 in 10.0 mi Calm Calm - N/A   Scattered Clouds
4:29 AM 59.0 °F 59.0 °F 100% 29.72 in 10.0 mi Calm Calm - N/A   Clear
4:49 AM 62.6 °F 60.8 °F 94% 29.72 in 10.0 mi Calm Calm - N/A   Clear
5:09 AM 60.8 °F 59.0 °F 94% 29.72 in 7.0 mi Calm Calm - N/A   Scattered Clouds
5:29 AM 59.0 °F 59.0 °F 100% 29.73 in 7.0 mi Calm Calm - N/A   Mostly Cloudy
5:49 AM 60.8 °F 59.0 °F 94% 29.73 in 10.0 mi Calm Calm - N/A   Overcast
6:09 AM 62.6 °F 60.8 °F 94% 29.73 in 10.0 mi NE 3.5 mph - N/A Thunderstorm Overcast
6:29 AM 62.6 °F 62.6 °F 100% 29.71 in 10.0 mi East 5.8 mph - N/A   Overcast
6:49 AM 64.4 °F 62.6 °F 94% 29.73 in 10.0 mi NW 6.9 mph 21.9 mph N/A   Overcast
7:09 AM 68.0 °F 62.6 °F 83% 29.71 in 10.0 mi NE 6.9 mph - N/A   Mostly Cloudy
7:29 AM 64.4 °F 60.8 °F 88% 29.72 in 10.0 mi NNE 4.6 mph - N/A   Clear
7:49 AM 66.2 °F 60.8 °F 83% 29.71 in 10.0 mi NE 5.8 mph - N/A   Clear
8:09 AM 64.4 °F 60.8 °F 88% 29.72 in 10.0 mi East 3.5 mph - N/A   Clear
8:29 AM 64.4 °F 60.8 °F 88% 29.72 in 10.0 mi East 4.6 mph - N/A   Scattered Clouds
8:49 AM 64.4 °F 62.6 °F 94% 29.69 in 10.0 mi ENE 6.9 mph - N/A   Clear
9:09 AM 64.4 °F 62.6 °F 94% 29.70 in 10.0 mi Calm Calm - N/A   Clear
9:29 AM 64.4 °F 62.6 °F 94% 29.70 in 10.0 mi Calm Calm - N/A   Clear
9:48 AM 64.4 °F 60.8 °F 88% 29.70 in 10.0 mi ENE 3.5 mph - N/A   Clear
10:09 AM 68.0 °F 62.6 °F 83% 29.71 in 10.0 mi Calm Calm - N/A   Clear
10:29 AM 69.8 °F 64.4 °F 83% 29.73 in 10.0 mi WSW 4.6 mph - N/A   Mostly Cloudy
10:48 AM 68.0 °F 60.8 °F 78% 29.74 in 10.0 mi WNW 11.5 mph 17.3 mph N/A   Overcast
11:09 AM 64.4 °F 60.8 °F 88% 29.74 in 3.0 mi Calm Calm - 0.07 in Rain Light Rain
11:29 AM 64.4 °F 62.6 °F 94% 29.74 in 10.0 mi Calm Calm - 0.08 in   Overcast
11:48 AM 68.0 °F 62.6 °F 83% 29.73 in 10.0 mi Calm Calm - 0.08 in   Overcast
12:09 PM 71.6 °F 66.2 °F 83% 29.72 in 10.0 mi Calm Calm - N/A   Overcast
12:29 PM 71.6 °F 64.4 °F 78% 29.73 in 10.0 mi Calm Calm - N/A   Overcast
12:48 PM 71.6 °F 64.4 °F 78% 29.73 in 10.0 mi Calm Calm - N/A   Overcast
1:09 PM 73.4 °F 66.2 °F 78% 29.72 in 10.0 mi ENE 3.5 mph - N/A   Mostly Cloudy
1:29 PM 73.4 °F 66.2 °F 78% 29.72 in 10.0 mi ENE 4.6 mph - N/A   Scattered Clouds
1:48 PM 77.0 °F 68.0 °F 74% 29.73 in 10.0 mi ESE 3.5 mph - N/A   Mostly Cloudy
2:09 PM 77.0 °F 66.2 °F 69% 29.73 in 10.0 mi Calm Calm - N/A   Mostly Cloudy
2:29 PM 77.0 °F 66.2 °F 69% 29.73 in 10.0 mi WSW 3.5 mph - N/A   Mostly Cloudy
2:49 PM 77.0 °F 64.4 °F 65% 29.73 in 10.0 mi Calm Calm - N/A   Scattered Clouds
3:08 PM 77.0 °F 64.4 °F 65% 29.73 in 10.0 mi Calm Calm - N/A   Mostly Cloudy
3:29 PM 77.0 °F 66.2 °F 69% 29.74 in 10.0 mi Calm Calm - N/A   Overcast
3:49 PM 77.0 °F 66.2 °F 69% 29.74 in 10.0 mi East 3.5 mph - N/A   Overcast
4:09 PM 77.0 °F 68.0 °F 74% 29.75 in 10.0 mi East 4.6 mph - N/A   Overcast
4:29 PM 77.0 °F 66.2 °F 69% 29.75 in 10.0 mi East 3.5 mph - N/A   Mostly Cloudy
4:48 PM 77.0 °F 66.2 °F 69% 29.75 in 10.0 mi Calm Calm - N/A   Scattered Clouds
5:09 PM 77.0 °F 66.2 °F 69% 29.74 in 10.0 mi Calm Calm - N/A Rain Rain
5:29 PM 77.0 °F 68.0 °F 74% 29.74 in 10.0 mi Calm Calm - N/A   Overcast
5:48 PM 77.0 °F 68.0 °F 74% 29.74 in 10.0 mi Calm Calm - N/A   Mostly Cloudy
6:09 PM 77.0 °F 68.0 °F 74% 29.74 in 10.0 mi West 4.6 mph - N/A   Mostly Cloudy
6:29 PM 77.0 °F 62.6 °F 61% 29.74 in 10.0 mi West 9.2 mph - N/A   Scattered Clouds
6:48 PM 77.0 °F 62.6 °F 61% 29.73 in 10.0 mi West 5.8 mph - N/A   Clear
7:09 PM 77.0 °F 62.6 °F 61% 29.73 in 10.0 mi West 10.4 mph - N/A   Clear
7:29 PM 77.0 °F 62.6 °F 61% 29.74 in 10.0 mi West 8.1 mph - N/A   Clear
7:48 PM 77.0 °F 64.4 °F 65% 29.74 in 10.0 mi West 6.9 mph - N/A   Clear
8:09 PM 77.0 °F 62.6 °F 61% 29.75 in 10.0 mi West 5.8 mph - N/A   Clear
8:28 PM 71.6 °F 60.8 °F 69% 29.75 in 10.0 mi West 5.8 mph - N/A   Clear
8:49 PM 71.6 °F 62.6 °F 73% 29.76 in 10.0 mi West 4.6 mph - N/A   Clear
9:09 PM 71.6 °F 62.6 °F 73% 29.76 in 10.0 mi West 5.8 mph - N/A   Clear
9:29 PM 71.6 °F 62.6 °F 73% 29.77 in 10.0 mi Calm Calm - N/A   Clear
9:49 PM 68.0 °F 60.8 °F 78% 29.79 in 7.0 mi West 4.6 mph - N/A   Clear
10:09 PM 69.8 °F 60.8 °F 73% 29.79 in 10.0 mi Calm Calm - N/A   Clear
10:29 PM 64.4 °F 60.8 °F 88% 29.79 in 10.0 mi Calm Calm - N/A   Clear
10:49 PM 66.2 °F 60.8 °F 83% 29.79 in 10.0 mi NW 3.5 mph - N/A   Clear
11:09 PM 69.8 °F 62.6 °F 78% 29.79 in 10.0 mi West 4.6 mph - N/A   Scattered Clouds
11:29 PM 68.0 °F 62.6 °F 83% 29.80 in 10.0 mi WSW 4.6 mph - N/A   Mostly Cloudy
11:49 PM 66.2 °F 60.8 °F 83% 29.79 in 10.0 mi WNW 8.1 mph - N/A Rain Light Rain